User: anonymous   Login
Location: Remedello Sotto
(45.2500°N, 10.3667°E)
Time: 00:57:38
(UTC+00:00)
Language:

SL-08 ROCKET BODY - Orbit

View from above orbital plane
View from above orbital plane
View from above satellite
View from above satellite

Ground track
Ground track

The orbit data is extracted from the following two-line orbital elements,

1 28522U 05002B   23152.42702290 -.00000015  00000-0 -25279-4 0  9992
2 28522  82.9445 145.9778 0045806 169.9064 190.3031 13.89717965931154
Epoch (UTC): 01 June 2023 10:14:54
Eccentricity: 0.0045806
inclination: 82.9445°
perigee height: 896 km
apogee height: 963 km
right ascension of ascending node: 145.9778°
argument of perigee: 169.9064°
revolutions per day: 13.89717965
mean anomaly at epoch: 190.3031°
orbit number at epoch: 93115

The dashed part of the orbit path shows where the satellite is in the earth's shadow,  

DLR